Location: ?????
(33.6267°N, 35.4675°E)
Time: 20:51:09
(UTC+00:00)

ATLAS 5 CENTAUR R/B - Pass Details

Date: 01 March 2020
Orbit: 542 x 1116 km, 63.4° (Epoch: 06 April)

Event Time Altitude Azimuth Distance (km) Brightness Sun altitude
Exits shadow 01:50:54 - 152° (SSE) 2,013 4.4 -28.9°
Reaches altitude 10° 01:51:45 10° 142° (SE) 1,807 4.2 -28.7°
Maximum altitude 01:53:56 14° 109° (ESE) 1,574 4.3 -28.3°
Drops below altitude 10° 01:56:11 10° 76° (ENE) 1,873 5.0 -27.8°
Sets 01:59:23 0° 52° (NE) 2,853 5.9 -27.2°
